Location: *
(49.4547°N, 7.9131°E)
Time: 13:33:35
(UTC+00:00)

Terra - Pass Details

Date: 22 September 2019
Orbit: 701 x 703 km, 98.2° (Epoch: 15 October)

Event Time Altitude Azimuth Distance (km) Brightness Sun altitude
Exits shadow 21:21:13 28° 346° (NNW) 1,303 3.6 -34.1°
Drops below altitude 10° 21:23:29 10° 346° (NNW) 2,182 5.0 -34.3°
Sets 21:25:45 0° 347° (NNW) 3,105 6.0 -34.6°
